Погода в Кургане

Погода в Кургане : погода сейчас, прогноз погоды и архив. Всё, что Вы хотите узнать о погоде в Кургане!

Хотите узнать прогноз погоды в Кургане? Тогда Вам сюда: Погода в Кургане

Поиск расширенной информации на нашем сайте:

Полезная информация:

Другие новости

Новости СМИ2

Главная страница сайта

Новости сайта

03.07.2017

Напоминаем, что на нашем специализированном сайте Метеоцентр.Азия вы можете получить высокодетализированные автоматические прогнозы погоды по пунктам России, СНГ и мира в авиационном формате (включающие направление и скорость ветра, видимость, явления погоды, количество и форму облачности, нижнюю и верхнюю границу облачности).

Рекомендуем:

Погода в Кургане - сегодня

Время (UTC), дата Ветер
(°,м/с) 
Видим.   Явления Облачность Т
(°С)
Тd
(°С)
f(%) Тe
(°С)
Pmin
(гПа)
dP
(гПа)
Po
(мм)
O2
(г/м3)
Тmin Tmax R s Состояние
почвы
21 18.05.19 тихо ()   10 км    8/8 1000 м 
[Sc]
+4.8 +3.5 91 +5  1000.2  -1.6  743  294           
00 19.05.19 180 (Ю) 20000 м    10/5 1000 м средняя, верхняя 
[Sc|Ac trans|Ci fib]
+5 +3.8 92 +6  999.3  -0.9  743  293           
03 19.05.19 270 (З) 20000 м    10/4 1000 м средняя, верхняя 
[Sc|Ac trans|Ci fib]
+7.5 +3.5 76 +7  998.6  -0.6  742  291  +4.3    0.3    влажная 
06 19.05.19 170 (Ю) 10 км  в посл. час ливневой дождь  10/8 600 м кучево-дожд., средняя 
[Cb cap|Ac und]
+6.7 +3.9 82 +8  998.5  -0.2  742  291           
09 19.05.19 250 (З) 3{10}  10 км  слаб. ливневой дождь  10/8 600 м кучево-дожд., средняя 
[Cb cap|Ac und]
+7.5 +3.1 74 +7  999.1  0.7  743  291           
12 19.05.19 270 (З) 10 км  слаб. ливневой дождь  10/8 600 м кучево-дожд., средняя 
[Cb cap|Ac und]
+6.5 +2.9 78 +5  1001.1  1.9  744  292           
15 19.05.19 260 (З) 3{10}  10 км  слаб. ливневой дождь  10/8 300 м кучево-дожд., средняя 
[Cb cap|Ac und]
+5.3 +2.3 81 +4  1002.8  1.7  745  294    +10.3     
18 19.05.19 230 (ЮЗ) 10 км  в посл. час ливневой дождь  10/4 1000 м кучево-дожд., средняя 
[Cb cap|Ac und]
+5.1 +2.1 81 +4  1004.1  1.3  746  295           
21 19.05.19 220 (ЮЗ) 10 км    8/0 средняя, верхняя 
[Ac trans|Ci fib]
+3.8 +0.8 81 +5  1004.4  0.2  746  297           
00 20.05.19 180 (Ю) 20000 м    3/3 1000 м 
[Sc]
+0.2 -0.9 92 +1  1005.3  0.8  747  301           
03 20.05.19 250 (З) 20000 м    3/0 средняя 
[Ac trans]
+5.8 +0.9 71 +7  1005.4  0.2  747  295  +0.1        влажная 
06 20.05.19 270 (З) 20000 м  в посл. час ливневой дождь  8/8 600 м кучево-дожд. 
[Cb cap]
+9.7 +0.7 53 +10  1004.5  -0.8  747  290           
09 20.05.19 300 (СЗ) 20000 м  слаб. ливневой дождь  10/8 600 м кучево-дожд., средняя 
[Cb cap|Ac und]
+7.3 +0.9 64 +7  1005.3  0.7  747  293           
12 20.05.19 360 (С) 20000 м  {ливн. осадки}  6/3 1000 м кучево-дожд., средняя, верхняя 
[Cb cap|Ac trans|Ci fib]
+9.9 +0.4 52 +11  1005  -0.3  747  290           
15 20.05.19 280 (З) 1{11}  20000 м  {ливн. осадки}  8/3 1000 м кучево-дожд., средняя, верхняя 
[Cb cap|Ac trans|Ci fib]
+6.7 +2.7 76 +8  1005.7  0.7  748  294    +10.9     
18 20.05.19 230 (ЮЗ) 10 км  {ливн. осадки}  6/0 средняя, верхняя 
[Ac trans|Ci fib]
+4.8 +2.6 86 +6  1006.1  0.3  748  296           
21 20.05.19 270 (З) 10 км    6/0 средняя, верхняя 
[Ac trans|Ci fib]
+4.2 +1.5 83 +4  1006  -0.2  748  296           
00 21.05.19 180 (Ю) 20000 м    4/0 средняя, верхняя 
[Ac trans|Ci fib]
+1.6 +0.3 91 +2  1006.9  0.8  748  300           
03 21.05.19 260 (З) 20000 м    6/0 средняя, верхняя 
[Ac trans|Ci fib]
+6 +1.8 74 +7  1007.5  0.7  749  295  +1.6        влажная 
06 21.05.19 270 (З) 20000 м    10/8 1000 м кучево-дожд., средняя 
[Cb cap|Ac und]
+8.6 +1 59 +9  1007.5  0.1  749  292           
09 21.05.19 270 (З) 3{12}  20000 м  в посл. час ливневой дождь  10/6 1000 м кучево-дожд., средняя 
[Cb cap|Ac und]
+9.3 +1.7 59 +9  1007.7  0.2  749  292           
12 21.05.19 290 (З) 20000 м  слаб. ливневой дождь  10/8 1000 м кучево-дожд., средняя 
[Cb cap|Ac und]
+6.6 +2.5 75 +6  1009.3  1.5  750  295           
15 21.05.19 260 (З) 20000 м  {ливн. осадки}  10/5 1000 м кучево-дожд., средняя 
[Cb cap|Ac und]
+6.3 +2.3 76 +6  1010  0.8  751  295    +10.8  0.8     
18 21.05.19 300 (СЗ) 10 км  в посл. час ливневой дождь  10/8 1000 м кучево-дожд., средняя 
[Cb cap|Ac und]
+5.1 +1.6 78 +6  1011.3  1.2  752  297           
21 21.05.19 310 (СЗ) 10 км    10/3 1000 м кучево-дожд., средняя, верхняя 
[Cb cap|Ac trans|Ci fib]
+4.7 +0.8 76 +4  1011.7  0.4  752  298           
Время (UTC), дата Ветер
(°,м/с) 
Видим.   Явления Облачность Т
(°С)
Тd
(°С)
f(%) Тe
(°С)
Pmin
(гПа)
dP
(гПа)
Po
(мм)
O2
(г/м3)
Тmin Tmax R s Состояние
почвы

Для получения пояснительной информации подведите курсор к названию столбца.

ПОГОДА в Кургане - архив

Всё, что Вы хотите узнать о погоде в Кургане - удобно и подробно!

Выберите нужную дату (начиная с 1 января 2018* года) и нажмите кнопку "Найти".
Будут отображены архивные сводки погоды по пункту Курган, начиная с указанной даты.


Отображать данные в формате CSV (для использования в таблицах Excel)


Внимание! Наш архив погоды предназначен исключительно для личного некоммерческого использования в познавательных целях. Если Вам необходимы официальные справки о состоянии погоды (для производственных, юридических, коммерческих и т.п. целей), обращайтесь в органы Росгидромета.

*Примечание: данная дата относится к архиву по метеостанциям СССР (Россия, СНГ, Балтия).
Архив по метеостанциям Зарубежной Европы и Азии (кроме Китая) хранится 10 дней, по другим регионам земного шара (Китай, Африка, Америка, Австралия, Океания) - 1 день.

Курган - район местоположения метеостанции


Название, широта, долгота, высота метеостанции:
Курган 55.5°ш. 65.4°д. 74 м над ур. моря [Российская Федерация]

Дополнительная информация

В oтличие oт бoльшинства пoгoдных сайтoв мы публикуем пoдрoбную метеoинфoрмацию в детальнoм прoфессиoнальнoм фoрмате.

Характеристики температуры и влажнoсти вoздуха измеряются на высoте 2 м в тени вдали oт зданий и деревьев.
Скoрoсть ветра измеряется на высoте 10 м (на урoвне рoста челoвека скoрoсть ветра ниже в 1.5-2 раза). Если метеoстанция нахoдится в гoрoде или в лесу, тo скoрoсть ветра занижена на 2-4 м/с пo сравнению с oткрытым местoм. Скoрoсть ветра над акватoриями крупных рек и oзёр, а также на вершинах хoлмoв на 2-5 м/с выше, чем в oбычных услoвиях.
Атмoсфернoе давление в разных тoчках местнoсти мoжет значительнo oтличаться oт давления на метеoстанции, в зависимoсти oт услoвий рельефа (при пoдъёме на 10 м давление пoнижается примернo на 1 мм рт.ст.).